EZY12NL EGPH-EGHI

Flight info

Callsign EZY12NL
Flight time N/A
Altitude 25000
Route TLA N864 DCS L612 VAMEB/N0404F230 L612 CALDA/N0448F330 DCT KEPAD L151 PEPUL/N0405F230 Y322 BUGUP
Aircraft A320/M-SDE3FGHIRWY/LB1

Departure

Time N/A
Airport Edinburgh Airport (EGPH)

Arrival

Time 2026-05-08 21:56
Airport Southampton Airport (EGHI)
Time Latitude Longitude Altitude Speed Heading
2026-05-08 21:42 51.26152 -1.23852 9110 ft 277 kts 183°
2026-05-08 21:42 51.24275 -1.23995 9111 ft 262 kts 183°
2026-05-08 21:42 51.22512 -1.24135 9108 ft 246 kts 183°
2026-05-08 21:42 51.20852 -1.24269 9068 ft 234 kts 183°
2026-05-08 21:43 51.19251 -1.24536 8794 ft 230 kts 194°
2026-05-08 21:43 51.17734 -1.25184 8489 ft 228 kts 195°
2026-05-08 21:43 51.16182 -1.25845 8171 ft 227 kts 195°
2026-05-08 21:43 51.14659 -1.26488 7854 ft 226 kts 194°
2026-05-08 21:44 51.13138 -1.27128 7540 ft 225 kts 194°
2026-05-08 21:44 51.11625 -1.27761 7228 ft 224 kts 194°
2026-05-08 21:44 51.10113 -1.28282 7098 ft 223 kts 188°
2026-05-08 21:44 51.08571 -1.28586 6842 ft 223 kts 186°
2026-05-08 21:45 51.07022 -1.28855 6405 ft 228 kts 186°
2026-05-08 21:45 51.05449 -1.29128 5970 ft 232 kts 186°
2026-05-08 21:45 51.03847 -1.29415 5608 ft 232 kts 186°
2026-05-08 21:45 51.02247 -1.29713 5272 ft 231 kts 186°
2026-05-08 21:46 51.00655 -1.30019 4941 ft 230 kts 186°
2026-05-08 21:46 50.99071 -1.30334 4601 ft 229 kts 186°
2026-05-08 21:46 50.97489 -1.30657 4270 ft 228 kts 186°
2026-05-08 21:46 50.95921 -1.30984 4033 ft 225 kts 186°
2026-05-08 21:47 50.94359 -1.31315 4009 ft 227 kts 186°
2026-05-08 21:47 50.92787 -1.31649 4010 ft 228 kts 186°
2026-05-08 21:47 50.91213 -1.31982 4010 ft 228 kts 186°
2026-05-08 21:47 50.89638 -1.32313 4010 ft 229 kts 186°
2026-05-08 21:48 50.88062 -1.32646 4010 ft 229 kts 186°
2026-05-08 21:48 50.86485 -1.32979 4013 ft 229 kts 186°
2026-05-08 21:48 50.84925 -1.33313 4006 ft 221 kts 186°
2026-05-08 21:48 50.83428 -1.33698 4006 ft 218 kts 194°
2026-05-08 21:49 50.82007 -1.34500 3865 ft 216 kts 199°
2026-05-08 21:49 50.80611 -1.35348 3640 ft 211 kts 200°
2026-05-08 21:49 50.79279 -1.36237 3524 ft 205 kts 200°
2026-05-08 21:49 50.77989 -1.37114 3403 ft 199 kts 201°
2026-05-08 21:50 50.76737 -1.37967 3262 ft 194 kts 201°
2026-05-08 21:50 50.75656 -1.39176 3130 ft 193 kts 233°
2026-05-08 21:50 50.75266 -1.41169 2942 ft 195 kts 272°
2026-05-08 21:50 50.75561 -1.43251 2711 ft 197 kts 301°
2026-05-08 21:51 50.76502 -1.44767 2553 ft 194 kts 334°
2026-05-08 21:51 50.77784 -1.45286 2502 ft 190 kts
2026-05-08 21:51 50.79030 -1.44736 2545 ft 186 kts 27°
2026-05-08 21:51 50.80215 -1.43908 2514 ft 182 kts 26°
2026-05-08 21:52 50.81362 -1.43229 2515 ft 172 kts 23°
2026-05-08 21:52 50.82468 -1.42622 2517 ft 164 kts 23°
2026-05-08 21:52 50.83506 -1.42061 2281 ft 152 kts 24°
2026-05-08 21:52 50.84491 -1.41523 2083 ft 147 kts 24°
2026-05-08 21:53 50.85445 -1.40997 1888 ft 144 kts 24°
2026-05-08 21:53 50.86388 -1.40477 1700 ft 143 kts 25°
2026-05-08 21:53 50.87323 -1.39961 1490 ft 142 kts 24°
2026-05-08 21:53 50.88251 -1.39442 1315 ft 141 kts 23°
2026-05-08 21:54 50.89170 -1.38910 1141 ft 140 kts 23°
2026-05-08 21:54 50.90076 -1.38360 956 ft 139 kts 23°
2026-05-08 21:54 50.90984 -1.37831 822 ft 138 kts 19°
2026-05-08 21:54 50.91912 -1.37408 637 ft 139 kts 19°
2026-05-08 21:55 50.92819 -1.36914 404 ft 137 kts 21°
2026-05-08 21:55 50.93718 -1.36407 208 ft 137 kts 20°
2026-05-08 21:55 50.94616 -1.35906 38 ft 132 kts 20°
2026-05-08 21:56 50.95440 -1.35450 40 ft 18 kts 19°
2026-05-08 21:56 50.95574 -1.35373 44 ft 24 kts 20°
2026-05-08 21:56 50.95752 -1.35274 43 ft 28 kts 19°
2026-05-08 21:56 50.95858 -1.35259 43 ft 11 kts 349°
2026-05-08 21:57 50.95876 -1.35219 43 ft 7 kts 140°
2026-05-08 21:57 50.95761 -1.35272 43 ft 28 kts 198°
2026-05-08 21:57 50.95537 -1.35395 43 ft 45 kts 199°
2026-05-08 21:57 50.95092 -1.35635 40 ft 43 kts 199°
2026-05-08 21:58 50.95022 -1.35738 40 ft 7 kts 283°
2026-05-08 21:58 50.95050 -1.35871 38 ft 14 kts 285°
2026-05-08 21:58 50.94995 -1.35954 39 ft 11 kts 201°
2026-05-08 21:58 50.94928 -1.35991 39 ft 10 kts 198°
2026-05-08 21:59 50.94896 -1.36062 39 ft 8 kts 278°
2026-05-08 21:59 50.94913 -1.36082 38 ft 3 kts 349°
2026-05-08 21:59 50.94943 -1.36066 39 ft 5 kts 21°
2026-05-08 21:59 50.94958 -1.36058 39 ft 0 kts 19°